Flag for United Kingdom Weather past 2 weeks in Birmingham, England, United Kingdom

Now
54 °F

Sleet. Scattered clouds.


Feels Like: 47 °F
Forecast: 45 / 54 °F
Wind: 26 mph from Northwest

Location: Birmingham / Airport

Current Time: Oct 21, 2014 at 2:51:55 PM

Latest Report: Oct 21, 2014 at 2:20 PM


Visibility: N/A

Pressure: 29.74 "Hg

Humidity: 51%

Dew point: 36 °F

Location of BirminghamLocation

Historic Weather in Birmingham — Graph

°F

Birmingham temperature yesterday

Maximum temperature yesterday: 57 °F (at 11:20 AM)
Minimum temperature yesterday: 50 °F (at 7:50 AM)
Average temperature yesterday: 54 °F

Past Weeks' High & Low Weather Summary

 TemperatureHumidityPressure
High64 °F (Oct 17, 1:20 PM)100% (Oct 6, 7:20 PM)29.98 "Hg (Oct 6, 7:20 PM)
Low36 °F (Oct 12, 7:20 AM)47% (Oct 7, 4:20 PM)29.21 "Hg (Oct 8, 3:20 PM)
Average53 °F88%29.65 "Hg
* Reported Oct 6 1:20 PM — Oct 21 1:20 PM, Birmingham, Weather by CustomWeather, © 2014

Note: Actual official high and low records may vary slightly from our data, if they occured in-between our weather recording intervals... More about our weather records

Advertising

Birmingham weather history for previous 24 hours

 ConditionsComfort  
Time TempWeatherWind HumidityBarometerVisibility
1:20 PM
Oct 21
54 °FScattered showers. Scattered clouds.26 mph51%29.68 "HgN/A
12:50 PM54 °FScattered clouds.21 mph54%29.68 "HgN/A
12:20 PM54 °FScattered clouds.18 mph54%29.65 "HgN/A
11:50 AM54 °FScattered clouds.17 mph54%29.65 "HgN/A
11:20 AM54 °FScattered clouds.21 mph58%29.62 "HgN/A
10:50 AM52 °FScattered clouds.16 mph62%29.62 "HgN/A
10:20 AM52 °FScattered clouds.18 mph62%29.59 "HgN/A
9:50 AM52 °FPassing clouds.17 mph62%29.56 "HgN/A
9:20 AM52 °FPassing clouds.16 mph62%29.56 "HgN/A
8:50 AM52 °FScattered clouds.21 mph62%29.53 "HgN/A
8:20 AM52 °FSleet. Partly cloudy.22 mph72%29.50 "HgN/A
7:50 AM54 °FRain. Partly cloudy.15 mph88%29.47 "Hg2 mi
7:20 AM55 °FLight rain. Partly cloudy.13 mph82%29.45 "Hg4 mi
6:50 AM57 °FLight rain. Passing clouds.12 mph82%29.45 "HgN/A
6:20 AM55 °FLight rain. Partly cloudy.13 mph94%29.45 "HgN/A
5:50 AM54 °FPartly cloudy.13 mph94%29.45 "HgN/A
5:20 AM54 °FLight rain. Mostly cloudy.13 mph94%29.47 "Hg4 mi
4:50 AM54 °FLight rain. Passing clouds.14 mph94%29.50 "HgN/A
4:20 AM54 °FPartly cloudy.15 mph94%29.53 "Hg6 mi
3:50 AM54 °FLight rain. Passing clouds.14 mph88%29.56 "HgN/A
3:20 AM54 °FLight rain. Passing clouds.13 mph88%29.59 "HgN/A
2:50 AM54 °FPartly cloudy.14 mph88%29.62 "HgN/A
2:20 AM54 °FMostly cloudy.14 mph88%29.62 "HgN/A
1:50 AM54 °FMostly cloudy.14 mph88%29.65 "Hg5 mi
1:20 AM54 °FPassing clouds.14 mph88%29.68 "Hg4 mi
12:50 AM54 °FLight rain. Passing clouds.10 mph88%29.71 "Hg4 mi
12:20 AM54 °FPassing clouds.13 mph88%29.74 "HgN/A
11:50 PM
Oct 20
54 °FPassing clouds.10 mph88%29.77 "Hg6 mi
11:20 PM52 °FPassing clouds.8 mph94%29.77 "Hg6 mi
10:50 PM52 °FPassing clouds.8 mph94%29.80 "HgN/A
10:20 PM52 °FPassing clouds.9 mph94%29.80 "HgN/A
9:50 PM52 °FPassing clouds.9 mph94%29.83 "HgN/A
9:20 PM52 °FClear.7 mph88%29.83 "Hg10 mi
8:50 PM54 °FPassing clouds.8 mph82%29.86 "HgN/A
8:20 PM54 °FPassing clouds.7 mph82%29.86 "HgN/A
7:50 PM54 °FPassing clouds.6 mph88%29.86 "HgN/A
7:20 PM55 °FPassing clouds.7 mph82%29.86 "HgN/A
6:50 PM55 °FBroken clouds.7 mph77%29.89 "HgN/A
6:20 PM55 °FBroken clouds.6 mph77%29.89 "HgN/A
5:50 PM55 °FPartly sunny.9 mph77%29.89 "HgN/A
5:20 PM55 °FScattered clouds.8 mph77%29.89 "HgN/A
4:50 PM55 °FScattered clouds.7 mph82%29.89 "HgN/A
4:20 PM57 °FPassing clouds.7 mph77%29.89 "HgN/A
3:50 PM57 °FScattered clouds.7 mph77%29.92 "HgN/A
3:20 PM55 °FScattered showers. Partly sunny.9 mph82%29.92 "HgN/A
2:50 PM57 °FScattered showers. Partly sunny.10 mph77%29.92 "HgN/A
2:20 PM57 °FPartly sunny.10 mph72%29.92 "HgN/A
Weather by CustomWeather, © 2014

See weather overviewHow to use our weather pages